SR1WXZ Weather Reports


time (UTC)temp
C
wind
direction
speed
KPH
gust
KPH
rain 1hr
cm
rain 24hr
cm
rain mn
cm
humidity
%
barometer
mb
20260504223039 8 120 4.8 0.0 0.00 0.00 0.00 100 1012.0
20260504222837 8 120 4.8 0.0 0.00 0.00 0.00 100 1012.0
20260504221549 8 120 4.8 0.0 0.00 0.00 0.00 100 1012.0
20260504220836 10 0.0 0.0 0.00 0.00 0.00 87 1012.0
20260504220041 10 0.0 0.0 0.00 0.00 0.00 87 1012.0
20260504214845 10 0.0 0.0 0.00 0.00 0.00 87 1012.0
20260504214541 10 0.0 0.0 0.00 0.00 0.00 87 1012.0
20260504213039 11 0.0 0.0 0.00 0.00 0.00 87 1012.0
20260504212843 11 0.0 0.0 0.00 0.00 0.00 87 1012.0
20260504211542 11 0.0 0.0 0.00 0.00 0.00 87 1012.0
20260504210842 11 0.0 0.0 0.00 0.00 0.00 87 1013.0
20260504210040 11 0.0 0.0 0.00 0.00 0.00 87 1013.0
20260504204838 11 0.0 0.0 0.00 0.00 0.00 87 1013.0
20260504204542 11 0.0 0.0 0.00 0.00 0.00 87 1013.0
20260504203040 12 0.0 0.0 0.00 0.00 0.00 76 1013.0
20260504202836 12 0.0 0.0 0.00 0.00 0.00 76 1013.0
20260504201542 12 0.0 0.0 0.00 0.00 0.00 76 1013.0
20260504200834 13 0.0 0.0 0.00 0.00 0.00 71 1013.0
20260504200042 13 0.0 0.0 0.00 0.00 0.00 71 1013.0
20260504194838 13 0.0 0.0 0.00 0.00 0.00 71 1013.0
20260504194543 13 0.0 0.0 0.00 0.00 0.00 71 1013.0
20260504193039 13 360 4.8 0.0 0.00 0.00 0.00 71 1013.0
20260504192836 13 360 4.8 0.0 0.00 0.00 0.00 71 1013.0
20260504191542 13 360 4.8 0.0 0.00 0.00 0.00 71 1013.0
20260504190834 15 10 4.8 0.0 0.00 0.00 0.00 67 1012.0
20260504190042 15 10 4.8 0.0 0.00 0.00 0.00 67 1012.0
20260504184838 15 10 4.8 0.0 0.00 0.00 0.00 67 1012.0
20260504184541 15 10 4.8 0.0 0.00 0.00 0.00 67 1012.0
20260504183039 15 10 9.7 0.0 0.00 0.00 0.00 67 1012.0
20260504182837 15 10 9.7 0.0 0.00 0.00 0.00 67 1012.0
20260504181542 15 10 9.7 0.0 0.00 0.00 0.00 67 1012.0
20260504180835 16 360 11.3 0.0 0.00 0.00 0.00 63 1012.0
20260504180040 16 360 11.3 0.0 0.00 0.00 0.00 63 1012.0
20260504174837 16 360 11.3 0.0 0.00 0.00 0.00 63 1012.0
20260504174541 16 360 11.3 0.0 0.00 0.00 0.00 63 1012.0
20260504173039 17 10 11.3 0.0 0.00 0.00 0.00 63 1012.0
20260504172836 17 10 11.3 0.0 0.00 0.00 0.00 63 1012.0
20260504171542 17 10 11.3 0.0 0.00 0.00 0.00 63 1012.0
20260504170834 17 350 12.9 0.0 0.00 0.00 0.00 63 1012.0
20260504150834 18 360 11.3 0.0 0.00 0.00 0.00 59 1012.0
20260504140840 18 310 19.3 0.0 0.00 0.00 0.00 55 1012.0
20260504081541 17 250 16.1 0.0 0.00 0.00 0.00 63 1011.0
20260504080835 17 240 19.3 0.0 0.00 0.00 0.00 63 1011.0
20260504044838 17 250 9.7 0.0 0.00 0.00 0.00 59 1010.0
20260504044540 17 250 9.7 0.0 0.00 0.00 0.00 59 1010.0
20260504043038 17 240 11.3 0.0 0.00 0.00 0.00 59 1010.0
20260504042836 17 240 11.3 0.0 0.00 0.00 0.00 59 1010.0
20260504041541 17 240 11.3 0.0 0.00 0.00 0.00 59 1010.0
20260504040835 17 250 8.0 0.0 0.00 0.00 0.00 55 1010.0
20260504040039 17 250 8.0 0.0 0.00 0.00 0.00 55 1010.0
20260504034837 17 250 8.0 0.0 0.00 0.00 0.00 55 1010.0
20260504034540 17 250 8.0 0.0 0.00 0.00 0.00 55 1010.0
20260504033038 17 240 8.0 0.0 0.00 0.00 0.00 55 1010.0
20260504032835 17 240 8.0 0.0 0.00 0.00 0.00 55 1010.0
20260504031541 17 240 8.0 0.0 0.00 0.00 0.00 55 1010.0
20260504030833 17 220 4.8 0.0 0.00 0.00 0.00 51 1009.0
20260504030039 17 220 4.8 0.0 0.00 0.00 0.00 51 1009.0
20260504024838 17 220 4.8 0.0 0.00 0.00 0.00 51 1009.0
20260504024540 17 220 4.8 0.0 0.00 0.00 0.00 51 1009.0
20260504023038 17 240 8.0 0.0 0.00 0.00 0.00 51 1009.0
20260504022836 17 240 8.0 0.0 0.00 0.00 0.00 51 1009.0
20260504021541 17 240 8.0 0.0 0.00 0.00 0.00 51 1009.0
20260504020835 17 230 4.8 0.0 0.00 0.00 0.00 48 1009.0
20260504020039 17 230 4.8 0.0 0.00 0.00 0.00 48 1009.0
20260504014838 17 230 4.8 0.0 0.00 0.00 0.00 48 1009.0
20260504014540 17 230 4.8 0.0 0.00 0.00 0.00 48 1009.0
20260504013039 17 210 8.0 0.0 0.00 0.00 0.00 48 1009.0
20260504012837 17 210 8.0 0.0 0.00 0.00 0.00 48 1009.0
20260504011541 17 210 8.0 0.0 0.00 0.00 0.00 48 1009.0
20260504010835 17 190 4.8 0.0 0.00 0.00 0.00 48 1009.0
20260504010039 17 190 4.8 0.0 0.00 0.00 0.00 48 1009.0
20260504004838 17 190 4.8 0.0 0.00 0.00 0.00 48 1009.0
20260504004540 17 190 4.8 0.0 0.00 0.00 0.00 48 1009.0
20260504003038 12 130 4.8 0.0 0.00 0.00 0.00 71 1009.0
20260504002836 12 130 4.8 0.0 0.00 0.00 0.00 71 1009.0
20260504001541 12 130 4.8 0.0 0.00 0.00 0.00 71 1009.0
20260504000834 12 100 4.8 0.0 0.00 0.00 0.00 71 1009.0
20260504000039 12 100 4.8 0.0 0.00 0.00 0.00 71 1009.0
20260503234837 12 100 4.8 0.0 0.00 0.00 0.00 71 1009.0
20260503234539 12 100 4.8 0.0 0.00 0.00 0.00 71 1009.0
20260503233038 15 0.0 0.0 0.00 0.00 0.00 62 1009.0
20260503232836 15 0.0 0.0 0.00 0.00 0.00 62 1009.0
20260503231541 15 0.0 0.0 0.00 0.00 0.00 62 1009.0
20260503230834 15 0.0 0.0 0.00 0.00 0.00 62 1010.0
20260503230039 15 0.0 0.0 0.00 0.00 0.00 62 1010.0
20260503224836 15 0.0 0.0 0.00 0.00 0.00 62 1010.0
20260503224539 15 0.0 0.0 0.00 0.00 0.00 62 1010.0